GW6121 Weather Reports


time (UTC)temp
C
wind
direction
speed
KPH
gust
KPH
rain 1hr
cm
rain 24hr
cm
rain mn
cm
humidity
%
barometer
mb
20260902153130 30 172 11.3 0.0 0.00 0.00 0.00 48 1017.6
20260902151610 30 134 14.5 0.0 0.00 0.00 0.00 48 1017.8
20260902150019 30 115 17.7 0.0 0.00 0.00 0.00 48 1017.8
20260902144641 30 171 14.5 0.0 0.00 0.00 0.00 47 1017.8
20260902143118 31 121 12.9 0.0 0.00 0.00 0.00 45 1017.8
20260902141530 31 133 12.9 0.0 0.00 0.00 0.00 46 1017.8
20260902140009 31 154 12.9 0.0 0.00 0.00 0.00 42 1017.7
20260902134638 31 110 11.3 0.0 0.00 0.00 0.00 40 1017.8
20260902133118 31 74 14.5 0.0 0.00 0.00 0.00 40 1017.9
20260902131607 31 91 14.5 0.0 0.00 0.00 0.00 40 1018.0
20260902130022 31 68 16.1 0.0 0.00 0.00 0.00 40 1018.0
20260902124642 31 78 16.1 0.0 0.00 0.00 0.00 41 1018.0
20260902123122 31 82 14.5 0.0 0.00 0.00 0.00 42 1018.2
20260902121612 31 87 12.9 0.0 0.00 0.00 0.00 42 1018.4
20260902120012 31 93 12.9 0.0 0.00 0.00 0.00 42 1018.4
20260902114641 31 90 12.9 0.0 0.00 0.00 0.00 42 1018.3
20260902113121 31 113 12.9 0.0 0.00 0.00 0.00 41 1018.4
20260902111608 31 103 9.7 0.0 0.00 0.00 0.00 41 1018.4
20260902110013 30 134 9.7 0.0 0.00 0.00 0.00 44 1018.6
20260902104634 30 96 12.9 0.0 0.00 0.00 0.00 43 1018.7
20260902103108 30 51 11.3 0.0 0.00 0.00 0.00 44 1018.6
20260902101519 30 122 9.7 0.0 0.00 0.00 0.00 46 1018.8
20260902100134 30 78 6.4 0.0 0.00 0.00 0.00 46 1018.9
20260902094618 29 76 4.8 0.0 0.00 0.00 0.00 49 1018.9
20260902093023 29 86 3.2 0.0 0.00 0.00 0.00 51 1018.9
20260902091643 28 100 4.8 0.0 0.00 0.00 0.00 50 1018.9
20260902090125 28 132 4.8 0.0 0.00 0.00 0.00 55 1018.8
20260902084621 27 282 1.6 0.0 0.00 0.00 0.00 61 1018.7
20260902083117 26 282 1.6 0.0 0.00 0.00 0.00 66 1018.5
20260902081511 25 281 4.8 0.0 0.00 0.00 0.00 69 1018.4
20260902080137 23 302 4.8 0.0 0.00 0.00 0.00 72 1018.3
20260902074633 23 293 4.8 0.0 0.00 0.00 0.00 77 1018.4
20260902073101 22 292 3.2 0.0 0.00 0.00 0.00 81 1018.4
20260902071504 21 309 3.2 0.0 0.00 0.00 0.00 84 1018.3
20260902070132 20 309 4.8 0.0 0.00 0.00 0.00 86 1018.3
20260902064613 20 305 3.2 0.0 0.00 0.00 0.00 87 1018.2
20260902063027 19 340 3.2 0.0 0.00 0.00 0.00 88 1018.1
20260902061534 19 346 1.6 0.0 0.00 0.00 0.00 87 1018.0
20260902060140 19 347 1.6 0.0 0.00 0.00 0.00 87 1017.9
20260902054620 19 346 1.6 0.0 0.00 0.00 0.00 86 1017.8
20260902053114 19 347 0.0 0.0 0.00 0.00 0.00 86 1017.7
20260902051507 20 355 4.8 0.0 0.00 0.00 0.00 87 1017.5
20260902050133 20 339 4.8 0.0 0.00 0.00 0.00 87 1017.4
20260902044618 20 329 3.2 0.0 0.00 0.00 0.00 87 1017.4
20260902043033 20 329 4.8 0.0 0.00 0.00 0.00 86 1017.4
20260902041508 20 328 4.8 0.0 0.00 0.00 0.00 87 1017.5
20260902040134 20 323 3.2 0.0 0.00 0.00 0.00 86 1017.4
20260902034614 20 322 3.2 0.0 0.00 0.00 0.00 86 1017.3
20260902033018 20 360 3.2 0.0 0.00 0.00 0.00 86 1017.3
20260902031642 20 360 3.2 0.0 0.00 0.00 0.00 86 1017.4
20260902030124 20 94 3.2 0.0 0.00 0.00 0.00 86 1017.3
20260902024617 20 360 3.2 0.0 0.00 0.00 0.00 86 1017.4
20260902023117 20 360 4.8 0.0 0.00 0.00 0.00 86 1017.4
20260902021504 20 360 4.8 0.0 0.00 0.00 0.00 86 1017.4
20260902020130 20 25 1.6 0.0 0.00 0.00 0.00 86 1017.4
20260902014610 20 19 0.0 0.0 0.00 0.00 0.00 85 1017.3
20260902013015 20 25 0.0 0.0 0.00 0.00 0.00 85 1017.5
20260902011641 20 17 0.0 0.0 0.00 0.00 0.00 85 1017.5
20260902010120 21 14 0.0 0.0 0.00 0.00 0.00 84 1017.5
20260902004558 21 14 0.0 0.0 0.00 0.00 0.00 84 1017.5
20260902003002 21 14 0.0 0.0 0.00 0.00 0.00 84 1017.5
20260902001622 21 14 0.0 0.0 0.00 0.00 0.00 84 1017.6
20260902000111 21 13 0.0 0.0 0.00 0.00 0.00 83 1017.5
20260901234510 21 12 0.0 0.0 0.00 0.00 0.00 82 1017.3
20260901233134 21 13 0.0 0.0 0.00 0.00 0.00 82 1017.3
20260901231620 21 13 0.0 0.0 0.00 0.00 0.00 83 1017.2
20260901230107 22 13 0.0 0.0 0.00 0.00 0.00 81 1017.3
20260901224639 22 12 0.0 0.0 0.00 0.00 0.00 80 1017.2
20260901223113 22 13 0.0 0.0 0.00 0.00 0.00 81 1017.2
20260901221538 22 13 0.0 0.0 0.00 0.00 0.00 81 1017.3
20260901220134 22 13 3.2 0.0 0.00 0.00 0.00 80 1017.1
20260901214618 22 13 1.6 0.0 0.00 0.00 0.00 79 1016.9
20260901213107 23 13 0.0 0.0 0.00 0.00 0.00 76 1016.7
20260901211514 23 13 0.0 0.0 0.00 0.00 0.00 74 1016.3
20260901210134 24 13 0.0 0.0 0.00 0.00 0.00 73 1016.4
20260901204624 24 13 1.6 0.0 0.00 0.00 0.00 73 1016.4
20260901203027 24 13 4.8 0.0 0.00 0.00 0.00 73 1016.6
20260901201504 24 9 0.0 0.0 0.00 0.00 0.00 73 1016.6
20260901200139 24 57 0.0 0.0 0.00 0.00 0.00 73 1016.4
20260901194626 25 59 3.2 0.0 0.00 0.00 0.00 71 1016.0
20260901193112 25 31 1.6 0.0 0.00 0.00 0.00 71 1015.8
20260901191635 25 30 3.2 0.0 0.00 0.00 0.00 70 1015.7
20260901190003 25 43 3.2 0.0 0.00 0.00 0.00 69 1015.6
20260901184629 25 360 3.2 0.0 0.00 0.00 0.00 69 1015.7
20260901183116 26 72 3.2 0.0 0.00 0.00 0.00 68 1015.5
20260901181525 26 76 6.4 0.0 0.00 0.00 0.00 67 1015.7
20260901180006 26 86 4.8 0.0 0.00 0.00 0.00 66 1015.8
20260901174629 26 51 6.4 0.0 0.00 0.00 0.00 66 1015.5
20260901173030 26 67 8.0 0.0 0.00 0.00 0.00 65 1015.7
20260901171510 26 84 9.7 0.0 0.00 0.00 0.00 64 1015.9
20260901170134 26 86 9.7 0.0 0.00 0.00 0.00 65 1016.0
20260901164632 27 200 11.3 0.0 0.00 0.00 0.00 64 1016.0
20260901163015 27 101 14.5 0.0 0.00 0.00 0.00 64 1016.1
20260901161503 26 96 14.5 0.0 0.00 0.00 0.00 63 1016.3
20260901160129 26 87 17.7 0.0 0.00 0.00 0.00 64 1016.1
20260901154619 26 99 16.1 0.0 0.00 0.00 0.00 62 1016.2